Weather in Karyevo

Russia / Perm Krai     57°10′42″N   56°34′10″E
temp.,
°C
wind,
m/s
gust,
m/s
humid.,
%
clouds,
%
prec.,
mm/h
press.,
hPa
HPBL,
m
27 february, sat
sat2723:00−20sse349894 0.0 102069
02:00−21se349433 0.0 101750
05:00−21se349258 0.0 101481
08:00−19ese41090100 0.0 1011241
11:00−16ese5993100 0.1 1009399
14:00−13ese6994100 0.8 1008521
17:00−12ese5994100 1.3 1008641
20:00−14e61092100 0.4 1008433
28 february, sun
sun2823:00−17e51095100 0.6 1008395
02:00−17ene4995100 0.3 1007400
05:00−17ene51095100 0.4 1007386
08:00−16ene51094100 0.1 1007403
11:00−14ene6993100 0.5 1007565
14:00−12ne6992100 0.4 1007613
17:00−13ne6993100 0.7 1008552
20:00−15ne61094100 0.3 1010383
1 march, mon
mon123:00−17ne5995100 0.5 1012324
02:00−18ne489799 0.1 1013255
05:00−18nne479799 0.3 1015232
08:00−20nne379993 0.1 1017162
11:00−18nne359492 0.1 1018288
14:00−15nne348797 0.0 1018435
17:00−14nne238899 0.0 1018400
20:00−19ssw119867 0.0 101820
2 march, tue
tue223:00−20sw229739 0.0 101820
02:00−21sw23980 0.0 101721
05:00−21ssw34985 0.0 101545
08:00−20ssw5109787 0.0 1013283
11:00−17ssw6109293 0.0 1011390
14:00−14s71290100 0.0 1009461
17:00−13ssw61292100 0.3 1007526
20:00−14ssw61292100 0.3 1005558
3 march, wed
wed323:00−13s41093100 0.4 1005525
02:00−13s5994100 0.4 1004486
05:00−14s4895100 0.6 1003357
08:00−15sse2696100 0.3 1002226
11:00−12sse2392100 0.8 1002309
14:00−9ese1191100 0.4 1001281
17:00−8ne1193100 0.8 1001213
20:00−10n2296100 0.3 100129